Year,Month,Day,Hour,Minute,Value (Times are PST for temperature in C)
2016,04,18,00,00,13.50
2016,04,18,00,01,13.50
2016,04,18,00,02,13.50
2016,04,18,00,03,13.50
2016,04,18,00,04,13.40
2016,04,18,00,05,13.40
2016,04,18,00,06,13.40
2016,04,18,00,07,13.40
2016,04,18,00,08,13.40
2016,04,18,00,09,13.40
2016,04,18,00,10,13.40
2016,04,18,00,11,13.40
2016,04,18,00,12,13.30
2016,04,18,00,13,13.30
2016,04,18,00,14,13.30
2016,04,18,00,15,13.30
2016,04,18,00,16,13.30
2016,04,18,00,17,13.30
2016,04,18,00,18,13.30
2016,04,18,00,19,13.30
2016,04,18,00,20,13.30
2016,04,18,00,21,13.30
2016,04,18,00,22,13.30
2016,04,18,00,23,13.30
2016,04,18,00,24,13.40
2016,04,18,00,25,13.40
2016,04,18,00,26,13.40
2016,04,18,00,27,13.40
2016,04,18,00,28,13.40
2016,04,18,00,29,13.40
2016,04,18,00,30,13.40
2016,04,18,00,31,13.30
2016,04,18,00,32,13.30
2016,04,18,00,33,13.30
2016,04,18,00,34,13.30
2016,04,18,00,35,13.30
2016,04,18,00,36,13.30
2016,04,18,00,37,13.30
2016,04,18,00,38,13.30
2016,04,18,00,39,13.30
2016,04,18,00,40,13.30
2016,04,18,00,41,13.30
2016,04,18,00,42,13.30
2016,04,18,00,43,13.30
2016,04,18,00,44,13.30
2016,04,18,00,45,13.40
2016,04,18,00,46,13.40
2016,04,18,00,47,13.40
2016,04,18,00,48,13.40
2016,04,18,00,49,13.40
2016,04,18,00,50,13.40
2016,04,18,00,51,13.40
2016,04,18,00,52,13.50
2016,04,18,00,53,13.50
2016,04,18,00,54,13.50
2016,04,18,00,55,13.50
2016,04,18,00,56,13.60
2016,04,18,00,57,13.60
2016,04,18,00,58,13.70
2016,04,18,00,59,13.70
2016,04,18,01,00,13.70
2016,04,18,01,01,13.70
2016,04,18,01,02,13.80
2016,04,18,01,03,13.80
2016,04,18,01,04,13.80
2016,04,18,01,05,13.80
2016,04,18,01,06,13.80
2016,04,18,01,07,13.80
2016,04,18,01,08,13.80
2016,04,18,01,09,13.80
2016,04,18,01,10,13.90
2016,04,18,01,11,13.90
2016,04,18,01,12,13.90
2016,04,18,01,13,14.00
2016,04,18,01,14,14.00
2016,04,18,01,15,14.00
2016,04,18,01,16,14.00
2016,04,18,01,17,14.00
2016,04,18,01,18,14.00
2016,04,18,01,19,14.10
2016,04,18,01,20,14.10
2016,04,18,01,21,14.10
2016,04,18,01,22,14.10
2016,04,18,01,23,14.10
2016,04,18,01,24,14.10
2016,04,18,01,25,14.10
2016,04,18,01,26,14.10
2016,04,18,01,27,14.10
2016,04,18,01,28,14.10
2016,04,18,01,29,14.10
2016,04,18,01,30,14.00
2016,04,18,01,31,14.00
2016,04,18,01,32,14.00
2016,04,18,01,33,14.00
2016,04,18,01,34,14.00
2016,04,18,01,35,14.00
2016,04,18,01,36,14.00
2016,04,18,01,37,14.00
2016,04,18,01,38,14.00
2016,04,18,01,39,14.00
2016,04,18,01,40,13.90
2016,04,18,01,41,13.90
2016,04,18,01,42,13.90
2016,04,18,01,43,13.90
2016,04,18,01,44,13.90
2016,04,18,01,45,13.90
2016,04,18,01,46,13.80
2016,04,18,01,47,13.80
2016,04,18,01,48,13.80
2016,04,18,01,49,13.80
2016,04,18,01,50,13.80
2016,04,18,01,51,13.80
2016,04,18,01,52,13.70
2016,04,18,01,53,13.70
2016,04,18,01,54,13.70
2016,04,18,01,55,13.70
2016,04,18,01,56,13.70
2016,04,18,01,57,13.70
2016,04,18,01,58,13.70
2016,04,18,01,59,13.70
2016,04,18,02,00,13.70
2016,04,18,02,01,13.70
2016,04,18,02,02,13.60
2016,04,18,02,03,13.60
2016,04,18,02,04,13.60
2016,04,18,02,05,13.60
2016,04,18,02,06,13.60
2016,04,18,02,07,13.60
2016,04,18,02,08,13.60
2016,04,18,02,09,13.60
2016,04,18,02,10,13.60
2016,04,18,02,11,13.60
2016,04,18,02,12,13.60
2016,04,18,02,13,13.60
2016,04,18,02,14,13.60
2016,04,18,02,15,13.70
2016,04,18,02,16,13.80
2016,04,18,02,17,13.80
2016,04,18,02,18,13.90
2016,04,18,02,19,13.90
2016,04,18,02,20,13.90
2016,04,18,02,21,13.90
2016,04,18,02,22,14.00
2016,04,18,02,23,14.00
2016,04,18,02,24,14.00
2016,04,18,02,25,14.10
2016,04,18,02,26,14.10
2016,04,18,02,27,14.10
2016,04,18,02,28,14.10
2016,04,18,02,29,14.10
2016,04,18,02,30,14.10
2016,04,18,02,31,14.10
2016,04,18,02,32,14.10
2016,04,18,02,33,14.10
2016,04,18,02,34,14.10
2016,04,18,02,35,14.10
2016,04,18,02,36,14.10
2016,04,18,02,37,14.00
2016,04,18,02,38,14.00
2016,04,18,02,39,14.00
2016,04,18,02,40,13.90
2016,04,18,02,41,13.90
2016,04,18,02,42,13.90
2016,04,18,02,43,13.80
2016,04,18,02,44,13.80
2016,04,18,02,45,13.80
2016,04,18,02,46,13.70
2016,04,18,02,47,13.70
2016,04,18,02,48,13.70
2016,04,18,02,49,13.70
2016,04,18,02,50,13.60
2016,04,18,02,51,13.60
2016,04,18,02,52,13.60
2016,04,18,02,53,13.50
2016,04,18,02,54,13.50
2016,04,18,02,55,13.40
2016,04,18,02,56,13.40
2016,04,18,02,57,13.40
2016,04,18,02,58,13.30
2016,04,18,02,59,13.30
2016,04,18,03,00,13.30
2016,04,18,03,01,13.20
2016,04,18,03,02,13.20
2016,04,18,03,03,13.20
2016,04,18,03,04,13.10
2016,04,18,03,05,13.10
2016,04,18,03,06,13.10
2016,04,18,03,07,13.10
2016,04,18,03,08,13.00
2016,04,18,03,09,13.00
2016,04,18,03,10,13.00
2016,04,18,03,11,13.00
2016,04,18,03,12,13.00
2016,04,18,03,13,13.00
2016,04,18,03,14,13.00
2016,04,18,03,15,12.90
2016,04,18,03,16,13.00
2016,04,18,03,17,13.00
2016,04,18,03,18,13.00
2016,04,18,03,19,13.00
2016,04,18,03,20,13.10
2016,04,18,03,21,13.10
2016,04,18,03,22,13.10
2016,04,18,03,23,13.10
2016,04,18,03,24,13.20
2016,04,18,03,25,13.20
2016,04,18,03,26,13.20
2016,04,18,03,27,13.30
2016,04,18,03,28,13.30
2016,04,18,03,29,13.30
2016,04,18,03,30,13.30
2016,04,18,03,31,13.40
2016,04,18,03,32,13.40
2016,04,18,03,33,13.40
2016,04,18,03,34,13.40
2016,04,18,03,35,13.40
2016,04,18,03,36,13.50
2016,04,18,03,37,13.50
2016,04,18,03,38,13.50
2016,04,18,03,39,13.60
2016,04,18,03,40,13.60
2016,04,18,03,41,13.60
2016,04,18,03,42,13.70
2016,04,18,03,43,13.70
2016,04,18,03,44,13.70
2016,04,18,03,45,13.70
2016,04,18,03,46,13.70
2016,04,18,03,47,13.70
2016,04,18,03,48,13.70
2016,04,18,03,49,13.70
2016,04,18,03,50,13.70
2016,04,18,03,51,13.80
2016,04,18,03,52,13.80
2016,04,18,03,53,13.80
2016,04,18,03,54,13.90
2016,04,18,03,55,13.90
2016,04,18,03,56,14.00
2016,04,18,03,57,14.00
2016,04,18,03,58,14.10
2016,04,18,03,59,14.10
2016,04,18,04,00,14.10
2016,04,18,04,01,14.10
2016,04,18,04,02,14.10
2016,04,18,04,03,14.10
2016,04,18,04,04,14.10
2016,04,18,04,05,14.10
2016,04,18,04,06,14.10
2016,04,18,04,07,14.10
2016,04,18,04,08,14.10
2016,04,18,04,09,14.00
2016,04,18,04,10,14.00
2016,04,18,04,11,13.90
2016,04,18,04,12,13.90
2016,04,18,04,13,13.90
2016,04,18,04,14,13.80
2016,04,18,04,15,13.80
2016,04,18,04,16,13.80
2016,04,18,04,17,13.90
2016,04,18,04,18,13.90
2016,04,18,04,19,14.00
2016,04,18,04,20,14.10
2016,04,18,04,21,14.10
2016,04,18,04,22,14.10
2016,04,18,04,23,14.20
2016,04,18,04,24,14.20
2016,04,18,04,25,14.20
2016,04,18,04,26,14.20
2016,04,18,04,27,14.20
2016,04,18,04,28,14.20
2016,04,18,04,29,14.20
2016,04,18,04,30,14.20
2016,04,18,04,31,14.20
2016,04,18,04,32,14.20
2016,04,18,04,33,14.20
2016,04,18,04,34,14.20
2016,04,18,04,35,14.20
2016,04,18,04,36,14.20
2016,04,18,04,37,14.30
2016,04,18,04,38,14.30
2016,04,18,04,39,14.30
2016,04,18,04,40,14.30
2016,04,18,04,41,14.30
2016,04,18,04,42,14.20
2016,04,18,04,43,14.20
2016,04,18,04,44,14.20
2016,04,18,04,45,14.10
2016,04,18,04,46,14.10
2016,04,18,04,47,14.00
2016,04,18,04,48,14.00
2016,04,18,04,49,13.90
2016,04,18,04,50,13.90
2016,04,18,04,51,13.90
2016,04,18,04,52,13.90
2016,04,18,04,53,13.90
2016,04,18,04,54,13.90
2016,04,18,04,55,13.90
2016,04,18,04,56,13.80
2016,04,18,04,57,13.80
2016,04,18,04,58,13.80
2016,04,18,04,59,13.80
2016,04,18,05,00,13.70
2016,04,18,05,01,13.70
2016,04,18,05,02,13.70
2016,04,18,05,03,13.70
2016,04,18,05,04,13.70
2016,04,18,05,05,13.70
2016,04,18,05,06,13.70
2016,04,18,05,07,13.80
2016,04,18,05,08,13.80
2016,04,18,05,09,13.80
2016,04,18,05,10,13.80
2016,04,18,05,11,13.80
2016,04,18,05,12,13.80
2016,04,18,05,13,13.80
2016,04,18,05,14,13.80
2016,04,18,05,15,13.80
2016,04,18,05,16,13.70
2016,04,18,05,17,13.70
2016,04,18,05,18,13.70
2016,04,18,05,19,13.70
2016,04,18,05,20,13.70
2016,04,18,05,21,13.70
2016,04,18,05,22,13.70
2016,04,18,05,23,13.70
2016,04,18,05,24,13.70
2016,04,18,05,25,13.70
2016,04,18,05,26,13.70
2016,04,18,05,27,13.70
2016,04,18,05,28,13.70
2016,04,18,05,29,13.70
2016,04,18,05,30,13.80
2016,04,18,05,31,13.80
2016,04,18,05,32,13.80
2016,04,18,05,33,13.80
2016,04,18,05,34,13.80
2016,04,18,05,35,13.90
2016,04,18,05,36,13.90
2016,04,18,05,37,13.90
2016,04,18,05,38,13.90
2016,04,18,05,39,13.90
2016,04,18,05,40,13.90
2016,04,18,05,41,13.90
2016,04,18,05,42,13.90
2016,04,18,05,43,13.90
2016,04,18,05,44,13.90
2016,04,18,05,45,14.00
2016,04,18,05,46,14.00
2016,04,18,05,47,14.10
2016,04,18,05,48,14.10
2016,04,18,05,49,14.20
2016,04,18,05,50,14.20
2016,04,18,05,51,14.30
2016,04,18,05,52,14.30
2016,04,18,05,53,14.30
2016,04,18,05,54,14.30
2016,04,18,05,55,14.40
2016,04,18,05,56,14.40
2016,04,18,05,57,14.30
2016,04,18,05,58,14.30
2016,04,18,05,59,14.30
2016,04,18,06,00,14.30
2016,04,18,06,01,14.30
2016,04,18,06,02,14.20
2016,04,18,06,03,14.20
2016,04,18,06,04,14.20
2016,04,18,06,05,14.20
2016,04,18,06,06,14.20
2016,04,18,06,07,14.10
2016,04,18,06,08,14.10
2016,04,18,06,09,14.10
2016,04,18,06,10,14.10
2016,04,18,06,11,14.10
2016,04,18,06,12,14.00
2016,04,18,06,13,14.00
2016,04,18,06,14,14.00
2016,04,18,06,15,14.00
2016,04,18,06,16,14.00
2016,04,18,06,17,13.90
2016,04,18,06,18,13.90
2016,04,18,06,19,13.90
2016,04,18,06,20,13.90
2016,04,18,06,21,13.90
2016,04,18,06,22,13.90
2016,04,18,06,23,13.90
2016,04,18,06,24,13.90
2016,04,18,06,25,13.90
2016,04,18,06,26,13.80
2016,04,18,06,27,13.80
2016,04,18,06,28,13.80
2016,04,18,06,29,13.80
2016,04,18,06,30,13.80
2016,04,18,06,31,13.80
2016,04,18,06,32,13.80
2016,04,18,06,33,13.80
2016,04,18,06,34,13.70
2016,04,18,06,35,13.70
2016,04,18,06,36,13.70
2016,04,18,06,37,13.70
2016,04,18,06,38,13.70
2016,04,18,06,39,13.70
2016,04,18,06,40,13.70
2016,04,18,06,41,13.70
2016,04,18,06,42,13.70
2016,04,18,06,43,13.60
2016,04,18,06,44,13.60
2016,04,18,06,45,13.60
2016,04,18,06,46,13.70
2016,04,18,06,47,13.70
2016,04,18,06,48,13.70
2016,04,18,06,49,13.70
2016,04,18,06,50,13.70
2016,04,18,06,51,13.80
2016,04,18,06,52,13.80
2016,04,18,06,53,13.80
2016,04,18,06,54,13.80
2016,04,18,06,55,13.80
2016,04,18,06,56,13.90
2016,04,18,06,57,13.90
2016,04,18,06,58,13.90
2016,04,18,06,59,13.90
2016,04,18,07,00,13.90
2016,04,18,07,01,13.90
2016,04,18,07,02,13.90
2016,04,18,07,03,13.90
2016,04,18,07,04,13.90
2016,04,18,07,05,13.90
2016,04,18,07,06,13.90
2016,04,18,07,07,13.90
2016,04,18,07,08,13.90
2016,04,18,07,09,13.90
2016,04,18,07,10,13.90
2016,04,18,07,11,13.90
2016,04,18,07,12,13.90
2016,04,18,07,13,13.90
2016,04,18,07,14,13.90
2016,04,18,07,15,13.90
2016,04,18,07,16,13.90
2016,04,18,07,17,13.90
2016,04,18,07,18,14.00
2016,04,18,07,19,14.00
2016,04,18,07,20,14.00
2016,04,18,07,21,14.00
2016,04,18,07,22,14.10
2016,04,18,07,23,14.10
2016,04,18,07,24,14.10
2016,04,18,07,25,14.10
2016,04,18,07,26,14.20
2016,04,18,07,27,14.20
2016,04,18,07,28,14.20
2016,04,18,07,29,14.30
2016,04,18,07,30,14.30
2016,04,18,07,31,14.30
2016,04,18,07,32,14.40
2016,04,18,07,33,14.40
2016,04,18,07,34,14.40
2016,04,18,07,35,14.40
2016,04,18,07,36,14.40
2016,04,18,07,37,14.50
2016,04,18,07,38,14.50
2016,04,18,07,39,14.60
2016,04,18,07,40,14.60
2016,04,18,07,41,14.60
2016,04,18,07,42,14.70
2016,04,18,07,43,14.70
2016,04,18,07,44,14.70
2016,04,18,07,45,14.80
2016,04,18,07,46,14.80
2016,04,18,07,47,14.80
2016,04,18,07,48,14.80
2016,04,18,07,49,14.90
2016,04,18,07,50,14.90
2016,04,18,07,51,14.90
2016,04,18,07,52,15.00
2016,04,18,07,53,15.00
2016,04,18,07,54,15.00
2016,04,18,07,55,15.00
2016,04,18,07,56,15.00
2016,04,18,07,57,15.10
2016,04,18,07,58,15.10
2016,04,18,07,59,15.10
2016,04,18,08,00,15.10
2016,04,18,08,01,15.10
2016,04,18,08,02,15.10
2016,04,18,08,03,15.10
2016,04,18,08,04,15.10
2016,04,18,08,05,15.20
2016,04,18,08,06,15.20
2016,04,18,08,07,15.20
2016,04,18,08,08,15.20
2016,04,18,08,09,15.20
2016,04,18,08,10,15.20
2016,04,18,08,11,15.30
2016,04,18,08,12,15.30
2016,04,18,08,13,15.30
2016,04,18,08,14,15.30
2016,04,18,08,15,15.30
2016,04,18,08,16,15.20
2016,04,18,08,17,15.20
2016,04,18,08,18,15.20
2016,04,18,08,19,15.20
2016,04,18,08,20,15.20
2016,04,18,08,21,15.20
2016,04,18,08,22,15.20
2016,04,18,08,23,15.10
2016,04,18,08,24,15.10
2016,04,18,08,25,15.10
2016,04,18,08,26,15.20
2016,04,18,08,27,15.20
2016,04,18,08,28,15.20
2016,04,18,08,29,15.20
2016,04,18,08,30,15.20
2016,04,18,08,31,15.20
2016,04,18,08,32,15.20
2016,04,18,08,33,15.20
2016,04,18,08,34,15.20
2016,04,18,08,35,15.30
2016,04,18,08,36,15.30
2016,04,18,08,37,15.30
2016,04,18,08,38,15.30
2016,04,18,08,39,15.40
2016,04,18,08,40,15.40
2016,04,18,08,41,15.40
2016,04,18,08,42,15.50
2016,04,18,08,43,15.50
2016,04,18,08,44,15.60
2016,04,18,08,45,15.60
2016,04,18,08,46,15.60
2016,04,18,08,47,15.70
2016,04,18,08,48,15.70
2016,04,18,08,49,15.80
2016,04,18,08,50,15.80
2016,04,18,08,51,15.80
2016,04,18,08,52,15.90
2016,04,18,08,53,15.90
2016,04,18,08,54,15.90
2016,04,18,08,55,16.00
2016,04,18,08,56,16.00
2016,04,18,08,57,16.00
2016,04,18,08,58,16.00
2016,04,18,08,59,16.00
2016,04,18,09,00,16.00
2016,04,18,09,01,16.00
2016,04,18,09,02,16.10
2016,04,18,09,03,16.10
2016,04,18,09,04,16.10
2016,04,18,09,05,16.10
2016,04,18,09,06,16.20
2016,04,18,09,07,16.20
2016,04,18,09,08,16.20
2016,04,18,09,09,16.20
2016,04,18,09,10,16.20
2016,04,18,09,11,16.30
2016,04,18,09,12,16.30
2016,04,18,09,13,16.30
2016,04,18,09,14,16.30
2016,04,18,09,15,16.30
2016,04,18,09,16,16.30
2016,04,18,09,17,16.30
2016,04,18,09,18,16.30
2016,04,18,09,19,16.30
2016,04,18,09,20,16.30
2016,04,18,09,21,16.30
2016,04,18,09,22,16.30
2016,04,18,09,23,16.40
2016,04,18,09,24,16.40
2016,04,18,09,25,16.40
2016,04,18,09,26,16.40
2016,04,18,09,27,16.40
2016,04,18,09,28,16.40
2016,04,18,09,29,16.50
2016,04,18,09,30,16.50
2016,04,18,09,31,16.50
2016,04,18,09,32,16.50
2016,04,18,09,33,16.50
2016,04,18,09,34,16.60
2016,04,18,09,35,16.60
2016,04,18,09,36,16.60
2016,04,18,09,37,16.70
2016,04,18,09,38,16.70
2016,04,18,09,39,16.70
2016,04,18,09,40,16.80
2016,04,18,09,41,16.80
2016,04,18,09,42,16.80
2016,04,18,09,43,16.90
2016,04,18,09,44,16.90
2016,04,18,09,45,16.90
2016,04,18,09,46,16.90
2016,04,18,09,47,17.00
2016,04,18,09,48,17.00
2016,04,18,09,49,17.10
2016,04,18,09,50,17.10
2016,04,18,09,51,17.20
2016,04,18,09,52,17.20
2016,04,18,09,53,17.30
2016,04,18,09,54,17.30
2016,04,18,09,55,17.30
2016,04,18,09,56,17.30
2016,04,18,09,57,17.30
2016,04,18,09,58,17.20
2016,04,18,09,59,17.20
2016,04,18,10,00,17.30
2016,04,18,10,01,17.30
2016,04,18,10,02,17.40
2016,04,18,10,03,17.40
2016,04,18,10,04,17.40
2016,04,18,10,05,17.50
2016,04,18,10,06,17.50
2016,04,18,10,07,17.60
2016,04,18,10,08,17.50
2016,04,18,10,09,17.60
2016,04,18,10,10,17.60
2016,04,18,10,11,17.60
2016,04,18,10,12,17.60
2016,04,18,10,13,17.60
2016,04,18,10,14,17.70
2016,04,18,10,15,17.70
2016,04,18,10,16,17.70
2016,04,18,10,17,17.70
2016,04,18,10,18,17.70
2016,04,18,10,19,17.70
2016,04,18,10,20,17.70
2016,04,18,10,21,17.70
2016,04,18,10,22,17.70
2016,04,18,10,23,17.70
2016,04,18,10,24,17.70
2016,04,18,10,25,17.80
2016,04,18,10,26,17.90
2016,04,18,10,27,17.90
2016,04,18,10,28,18.00
2016,04,18,10,29,18.00
2016,04,18,10,30,18.10
2016,04,18,10,31,18.10
2016,04,18,10,32,18.10
2016,04,18,10,33,18.20
2016,04,18,10,34,18.30
2016,04,18,10,35,18.30
2016,04,18,10,36,18.30
2016,04,18,10,37,18.30
2016,04,18,10,38,18.30
2016,04,18,10,39,18.30
2016,04,18,10,40,18.40
2016,04,18,10,41,18.50
2016,04,18,10,42,18.60
2016,04,18,10,43,18.60
2016,04,18,10,44,18.70
2016,04,18,10,45,18.80
2016,04,18,10,46,18.80
2016,04,18,10,47,18.90
2016,04,18,10,48,19.00
2016,04,18,10,49,19.00
2016,04,18,10,50,19.00
2016,04,18,10,51,19.00
2016,04,18,10,52,19.10
2016,04,18,10,53,19.10
2016,04,18,10,54,19.10
2016,04,18,10,55,19.10
2016,04,18,10,56,19.20
2016,04,18,10,57,19.20
2016,04,18,10,58,19.30
2016,04,18,10,59,19.30
2016,04,18,11,00,19.30
2016,04,18,11,01,19.30
2016,04,18,11,02,19.30
2016,04,18,11,03,19.30
2016,04,18,11,04,19.30
2016,04,18,11,05,19.20
2016,04,18,11,06,19.20
2016,04,18,11,07,19.10
2016,04,18,11,08,19.10
2016,04,18,11,09,19.00
2016,04,18,11,10,19.00
2016,04,18,11,11,18.90
2016,04,18,11,12,18.90
2016,04,18,11,13,18.90
2016,04,18,11,14,18.90
2016,04,18,11,15,18.90
2016,04,18,11,16,18.90
2016,04,18,11,17,18.90
2016,04,18,11,18,19.00
2016,04,18,11,19,19.10
2016,04,18,11,20,19.10
2016,04,18,11,21,19.20
2016,04,18,11,22,19.20
2016,04,18,11,23,19.20
2016,04,18,11,24,19.20
2016,04,18,11,25,19.30
2016,04,18,11,26,19.30
2016,04,18,11,27,19.40
2016,04,18,11,28,19.50
2016,04,18,11,29,19.60
2016,04,18,11,30,19.70
2016,04,18,11,31,19.70
2016,04,18,11,32,19.80
2016,04,18,11,33,19.80
2016,04,18,11,34,19.80
2016,04,18,11,35,19.80
2016,04,18,11,36,19.80
2016,04,18,11,37,19.90
2016,04,18,11,38,19.90
2016,04,18,11,39,19.90
2016,04,18,11,40,20.00
2016,04,18,11,41,20.00
2016,04,18,11,42,20.00
2016,04,18,11,43,20.00
2016,04,18,11,44,20.00
2016,04,18,11,45,20.00
2016,04,18,11,46,20.00
2016,04,18,11,47,20.00
2016,04,18,11,48,19.90
2016,04,18,11,49,19.90
2016,04,18,11,50,19.90
2016,04,18,11,51,20.00
2016,04,18,11,52,20.00
2016,04,18,11,53,20.10
2016,04,18,11,54,20.20
2016,04,18,11,55,20.20
2016,04,18,11,56,20.20
2016,04,18,11,57,20.30
2016,04,18,11,58,20.30
2016,04,18,11,59,20.40
2016,04,18,12,00,20.50
2016,04,18,12,01,20.60
2016,04,18,12,02,20.70
2016,04,18,12,03,20.80
2016,04,18,12,04,20.90
2016,04,18,12,05,21.00
2016,04,18,12,06,21.10
2016,04,18,12,07,21.20
2016,04,18,12,08,21.30
2016,04,18,12,09,21.30
2016,04,18,12,10,21.40
2016,04,18,12,11,21.50
2016,04,18,12,12,21.60
2016,04,18,12,13,21.60
2016,04,18,12,14,21.70
2016,04,18,12,15,21.70
2016,04,18,12,16,21.70
2016,04,18,12,17,21.70
2016,04,18,12,18,21.70
2016,04,18,12,19,21.70
2016,04,18,12,20,21.70
2016,04,18,12,21,21.70
2016,04,18,12,22,21.80
2016,04,18,12,23,21.80
2016,04,18,12,24,21.90
2016,04,18,12,25,21.90
2016,04,18,12,26,21.90
2016,04,18,12,27,22.00
2016,04,18,12,28,22.10
2016,04,18,12,29,22.20
2016,04,18,12,30,22.20
2016,04,18,12,31,22.30
2016,04,18,12,32,22.40
2016,04,18,12,33,22.40
2016,04,18,12,34,22.50
2016,04,18,12,35,22.50
2016,04,18,12,36,22.50
2016,04,18,12,37,22.60
2016,04,18,12,38,22.70
2016,04,18,12,39,22.70
2016,04,18,12,40,22.60
2016,04,18,12,41,22.60
2016,04,18,12,42,22.60
2016,04,18,12,43,22.70
2016,04,18,12,44,22.70
2016,04,18,12,45,22.80
2016,04,18,12,46,22.80
2016,04,18,12,47,22.90
2016,04,18,12,48,23.00
2016,04,18,12,49,23.10
2016,04,18,12,50,23.10
2016,04,18,12,51,23.20
2016,04,18,12,52,23.20
2016,04,18,12,53,23.30
2016,04,18,12,54,23.30
2016,04,18,12,55,23.40
2016,04,18,12,56,23.40
2016,04,18,12,57,23.50
2016,04,18,12,58,23.60
2016,04,18,12,59,23.60
2016,04,18,13,00,23.70
2016,04,18,13,01,23.70
2016,04,18,13,02,23.80
2016,04,18,13,03,23.90
2016,04,18,13,04,23.90
2016,04,18,13,05,24.00
2016,04,18,13,06,24.00
2016,04,18,13,07,24.10
2016,04,18,13,08,24.00
2016,04,18,13,09,24.00
2016,04,18,13,10,23.90
2016,04,18,13,11,23.90
2016,04,18,13,12,23.90
2016,04,18,13,13,23.90
2016,04,18,13,14,23.90
2016,04,18,13,15,24.00
2016,04,18,13,16,24.00
2016,04,18,13,17,24.00
2016,04,18,13,18,24.00
2016,04,18,13,19,23.90
2016,04,18,13,20,23.90
2016,04,18,13,21,23.90
2016,04,18,13,22,23.90
2016,04,18,13,23,23.90
2016,04,18,13,24,23.90
2016,04,18,13,25,23.90
2016,04,18,13,26,23.90
2016,04,18,13,27,23.90
2016,04,18,13,28,23.90
2016,04,18,13,29,24.00
2016,04,18,13,30,24.00
2016,04,18,13,31,24.00
2016,04,18,13,32,23.90
2016,04,18,13,33,23.80
2016,04,18,13,34,23.60
2016,04,18,13,35,23.30
2016,04,18,13,36,23.00
2016,04,18,13,37,22.80
2016,04,18,13,38,22.60
2016,04,18,13,39,22.40
2016,04,18,13,40,22.20
2016,04,18,13,41,22.00
2016,04,18,13,42,21.90
2016,04,18,13,43,21.90
2016,04,18,13,44,21.80
2016,04,18,13,45,21.80
2016,04,18,13,46,21.70
2016,04,18,13,47,21.60
2016,04,18,13,48,21.60
2016,04,18,13,49,21.50
2016,04,18,13,50,21.50
2016,04,18,13,51,21.50
2016,04,18,13,52,21.50
2016,04,18,13,53,21.60
2016,04,18,13,54,21.60
2016,04,18,13,55,21.60
2016,04,18,13,56,21.70
2016,04,18,13,57,21.70
2016,04,18,13,58,21.70
2016,04,18,13,59,21.70
2016,04,18,14,00,21.70
2016,04,18,14,01,21.70
2016,04,18,14,02,21.70
2016,04,18,14,03,21.80
2016,04,18,14,04,21.80
2016,04,18,14,05,21.90
2016,04,18,14,06,22.00
2016,04,18,14,07,22.00
2016,04,18,14,08,22.10
2016,04,18,14,09,22.20
2016,04,18,14,10,22.30
2016,04,18,14,11,22.30
2016,04,18,14,12,22.40
2016,04,18,14,13,22.50
2016,04,18,14,14,22.50
2016,04,18,14,15,22.50
2016,04,18,14,16,22.50
2016,04,18,14,17,22.40
2016,04,18,14,18,22.40
2016,04,18,14,19,22.40
2016,04,18,14,20,22.40
2016,04,18,14,21,22.40
2016,04,18,14,22,22.30
2016,04,18,14,23,22.20
2016,04,18,14,24,22.20
2016,04,18,14,25,22.10
2016,04,18,14,26,21.90
2016,04,18,14,27,21.90
2016,04,18,14,28,21.70
2016,04,18,14,29,21.60
2016,04,18,14,30,21.50
2016,04,18,14,31,21.40
2016,04,18,14,32,21.40
2016,04,18,14,33,21.30
2016,04,18,14,34,21.30
2016,04,18,14,35,21.40
2016,04,18,14,36,21.30
2016,04,18,14,37,21.30
2016,04,18,14,38,21.30
2016,04,18,14,39,21.30
2016,04,18,14,40,21.30
2016,04,18,14,41,21.40
2016,04,18,14,42,21.40
2016,04,18,14,43,21.50
2016,04,18,14,44,21.60
2016,04,18,14,45,21.60
2016,04,18,14,46,21.60
2016,04,18,14,47,21.60
2016,04,18,14,48,21.60
2016,04,18,14,49,21.60
2016,04,18,14,50,21.70
2016,04,18,14,51,21.70
2016,04,18,14,52,21.60
2016,04,18,14,53,21.50
2016,04,18,14,54,21.40
2016,04,18,14,55,21.40
2016,04,18,14,56,21.30
2016,04,18,14,57,21.20
2016,04,18,14,58,21.20
2016,04,18,14,59,21.20
2016,04,18,15,00,21.20
2016,04,18,15,01,21.20
2016,04,18,15,02,21.20
2016,04,18,15,03,21.20
2016,04,18,15,04,21.20
2016,04,18,15,05,21.20
2016,04,18,15,06,21.20
2016,04,18,15,07,21.20
2016,04,18,15,08,21.20
2016,04,18,15,09,21.20
2016,04,18,15,10,21.20
2016,04,18,15,11,21.30
2016,04,18,15,12,21.30
2016,04,18,15,13,21.30
2016,04,18,15,14,21.30
2016,04,18,15,15,21.30
2016,04,18,15,16,21.30
2016,04,18,15,17,21.30
2016,04,18,15,18,21.30
2016,04,18,15,19,21.40
2016,04,18,15,20,21.40
2016,04,18,15,21,21.40
2016,04,18,15,22,21.50
2016,04,18,15,23,21.50
2016,04,18,15,24,21.50
2016,04,18,15,25,21.50
2016,04,18,15,26,21.50
2016,04,18,15,27,21.50
2016,04,18,15,28,21.50
2016,04,18,15,29,21.60
2016,04,18,15,30,21.60
2016,04,18,15,31,21.60
2016,04,18,15,32,21.60
2016,04,18,15,33,21.60
2016,04,18,15,34,21.70
2016,04,18,15,35,21.70
2016,04,18,15,36,21.70
2016,04,18,15,37,21.70
2016,04,18,15,38,21.70
2016,04,18,15,39,21.70
2016,04,18,15,40,21.80
2016,04,18,15,41,21.70
2016,04,18,15,42,21.70
2016,04,18,15,43,21.70
2016,04,18,15,44,21.70
2016,04,18,15,45,21.60
2016,04,18,15,46,21.60
2016,04,18,15,47,21.50
2016,04,18,15,48,21.40
2016,04,18,15,49,21.40
2016,04,18,15,50,21.50
2016,04,18,15,51,21.50
2016,04,18,15,52,21.50
2016,04,18,15,53,21.40
2016,04,18,15,54,21.40
2016,04,18,15,55,21.40
2016,04,18,15,56,21.30
2016,04,18,15,57,21.30
2016,04,18,15,58,21.20
2016,04,18,15,59,21.10
2016,04,18,16,00,21.00
2016,04,18,16,01,20.80
2016,04,18,16,02,20.70
2016,04,18,16,03,20.50
2016,04,18,16,04,20.30
2016,04,18,16,05,20.20
2016,04,18,16,06,20.10
2016,04,18,16,07,20.00
2016,04,18,16,08,19.80
2016,04,18,16,09,19.60
2016,04,18,16,10,19.40
2016,04,18,16,11,19.20
2016,04,18,16,12,19.10
2016,04,18,16,13,18.90
2016,04,18,16,14,18.80
2016,04,18,16,15,18.80
2016,04,18,16,16,18.70
2016,04,18,16,17,18.70
2016,04,18,16,18,18.70
2016,04,18,16,19,18.60
2016,04,18,16,20,18.70
2016,04,18,16,21,18.70
2016,04,18,16,22,18.80
2016,04,18,16,23,18.80
2016,04,18,16,24,19.00
2016,04,18,16,25,19.10
2016,04,18,16,26,19.20
2016,04,18,16,27,19.30
2016,04,18,16,28,19.50
2016,04,18,16,29,19.70
2016,04,18,16,30,19.80
2016,04,18,16,31,19.90
2016,04,18,16,32,20.00
2016,04,18,16,33,20.10
2016,04,18,16,34,20.20
2016,04,18,16,35,20.30
2016,04,18,16,36,20.40
2016,04,18,16,37,20.50
2016,04,18,16,38,20.70
2016,04,18,16,39,20.80
2016,04,18,16,40,20.90
2016,04,18,16,41,20.90
2016,04,18,16,42,21.00
2016,04,18,16,43,21.10
2016,04,18,16,44,21.10
2016,04,18,16,45,21.20
2016,04,18,16,46,21.20
2016,04,18,16,47,21.20
2016,04,18,16,48,21.20
2016,04,18,16,49,21.20
2016,04,18,16,50,21.20
2016,04,18,16,51,21.20
2016,04,18,16,52,21.20
2016,04,18,16,53,21.20
2016,04,18,16,54,21.20
2016,04,18,16,55,21.30
2016,04,18,16,56,21.30
2016,04,18,16,57,21.40
2016,04,18,16,58,21.40
2016,04,18,16,59,21.40
2016,04,18,17,00,21.30
2016,04,18,17,01,21.30
2016,04,18,17,02,21.20
2016,04,18,17,03,21.20
2016,04,18,17,04,21.20
2016,04,18,17,05,21.10
2016,04,18,17,06,21.20
2016,04,18,17,07,21.20
2016,04,18,17,08,21.20
2016,04,18,17,09,21.20
2016,04,18,17,10,21.20
2016,04,18,17,11,21.20
2016,04,18,17,12,21.30
2016,04,18,17,13,21.30
2016,04,18,17,14,21.40
2016,04,18,17,15,21.40
2016,04,18,17,16,21.40
2016,04,18,17,17,21.40
2016,04,18,17,18,21.50
2016,04,18,17,19,21.50